Time,TemperatureF,DewpointF,PressureIn,WindDirection,WindDirectionDegrees,WindSpeedMPH,WindSpeedGustMPH,Humidity,HourlyPrecipIn,Conditions,Clouds,dailyrainin,SoftwareType,DateUTC
2013-10-20 05:22:00,37.0,25.0,-100.00,SW,224,0.0,3.0,62,0.00,,,0.00,,2013-10-20 11:22:00,
2013-10-20 05:43:00,37.0,26.0,-100.00,SW,226,1.0,3.0,64,0.00,,,0.00,,2013-10-20 11:43:00,
2013-10-20 05:52:00,37.0,26.0,-100.00,West,275,0.0,1.0,65,0.00,,,0.00,,2013-10-20 11:52:00,
2013-10-20 06:11:00,36.0,26.0,-100.00,West,275,0.0,1.0,66,0.00,,,0.00,,2013-10-20 12:11:00,
2013-10-20 06:21:00,36.0,26.0,-100.00,West,274,0.0,2.0,68,0.00,,,0.00,,2013-10-20 12:21:00,
2013-10-20 06:42:00,34.0,25.0,-100.00,West,260,0.0,1.0,70,0.00,,,0.00,,2013-10-20 12:42:00,
2013-10-20 06:52:00,33.0,25.0,-100.00,West,260,0.0,1.0,73,0.00,,,0.00,,2013-10-20 12:52:00,
2013-10-20 07:11:00,33.0,26.0,-100.00,West,262,0.0,2.0,74,0.00,,,0.00,,2013-10-20 13:11:00,
2013-10-20 07:21:00,32.0,25.0,-100.00,West,276,1.0,3.0,75,0.00,,,0.00,,2013-10-20 13:21:00,
2013-10-20 07:42:00,32.0,25.0,-100.00,West,276,1.0,3.0,75,0.00,,,0.00,,2013-10-20 13:42:00,
2013-10-20 07:52:00,31.0,24.0,-100.00,West,276,1.0,3.0,76,0.00,,,0.00,,2013-10-20 13:52:00,
2013-10-20 08:11:00,31.0,25.0,-100.00,West,276,0.0,3.0,77,0.00,,,0.00,,2013-10-20 14:11:00,
2013-10-20 08:21:00,30.0,24.0,-100.00,West,276,0.0,2.0,79,0.00,,,0.00,,2013-10-20 14:21:00,
2013-10-20 08:42:00,30.0,24.0,-100.00,West,276,1.0,3.0,79,0.00,,,0.00,,2013-10-20 14:42:00,
2013-10-20 08:52:00,31.0,25.0,-100.00,West,279,0.0,3.0,78,0.00,,,0.00,,2013-10-20 14:52:00,
2013-10-20 09:11:00,33.0,26.0,-100.00,West,279,0.0,2.0,76,0.00,,,0.00,,2013-10-20 15:11:00,
2013-10-20 09:21:00,35.0,26.0,-100.00,West,279,1.0,2.0,70,0.00,,,0.00,,2013-10-20 15:21:00,
2013-10-20 09:44:00,37.0,27.0,-100.00,West,279,0.0,2.0,67,0.00,,,0.00,,2013-10-20 15:44:00,
2013-10-20 09:54:00,37.0,27.0,-100.00,West,279,0.0,2.0,67,0.00,,,0.00,,2013-10-20 15:54:00,
2013-10-20 10:14:00,37.0,27.0,-100.00,West,279,0.0,2.0,67,0.00,,,0.00,,2013-10-20 16:14:00,